DLH1TL EDDF-EGKK

Flight info

Callsign DLH1TL
Flight time N/A
Altitude 38000
Route OBOKA3M/25C OBOKA Z29 TORNU DCT GALSO Q63 ARREK Y4 TEBRA
Aircraft A320/M-SDE3FGHIRWY/LB1

Departure

Time 2026-04-16 15:37
Airport Frankfurt Main Airport (EDDF)

Arrival

Time N/A
Airport London Gatwick Airport (EGKK)
Time Latitude Longitude Altitude Speed Heading
2026-04-16 15:19 50.04453 8.56431 356 ft 0 kts 154°
2026-04-16 15:26 50.04460 8.56425 359 ft 3 kts 154°
2026-04-16 15:26 50.04479 8.56412 361 ft 3 kts 156°
2026-04-16 15:26 50.04491 8.56404 361 ft 3 kts 162°
2026-04-16 15:26 50.04509 8.56397 357 ft 3 kts 188°
2026-04-16 15:27 50.04521 8.56403 356 ft 2 kts 246°
2026-04-16 15:27 50.04521 8.56404 356 ft 1 kts 250°
2026-04-16 15:27 50.04516 8.56380 360 ft 2 kts 250°
2026-04-16 15:27 50.04514 8.56374 358 ft 0 kts 250°
2026-04-16 15:29 50.04513 8.56370 358 ft 3 kts 250°
2026-04-16 15:29 50.04492 8.56282 357 ft 14 kts 249°
2026-04-16 15:29 50.04448 8.56098 362 ft 20 kts 249°
2026-04-16 15:30 50.04350 8.56058 359 ft 15 kts 156°
2026-04-16 15:30 50.04293 8.56164 358 ft 13 kts 99°
2026-04-16 15:30 50.04234 8.56243 359 ft 12 kts 159°
2026-04-16 15:30 50.04163 8.56291 356 ft 11 kts 141°
2026-04-16 15:31 50.04152 8.56387 355 ft 9 kts 71°
2026-04-16 15:31 50.04171 8.56461 358 ft 6 kts 68°
2026-04-16 15:31 50.04183 8.56510 362 ft 5 kts 69°
2026-04-16 15:31 50.04204 8.56598 360 ft 13 kts 70°
2026-04-16 15:32 50.04237 8.56741 360 ft 15 kts 70°
2026-04-16 15:32 50.04268 8.56871 360 ft 16 kts 70°
2026-04-16 15:32 50.04307 8.57034 363 ft 17 kts 70°
2026-04-16 15:32 50.04333 8.57146 362 ft 5 kts 70°
2026-04-16 15:33 50.04345 8.57195 365 ft 5 kts 69°
2026-04-16 15:33 50.04364 8.57279 363 ft 12 kts 69°
2026-04-16 15:33 50.04401 8.57439 364 ft 19 kts 72°
2026-04-16 15:33 50.04457 8.57647 367 ft 21 kts 68°
2026-04-16 15:34 50.04506 8.57871 365 ft 17 kts 71°
2026-04-16 15:34 50.04553 8.58059 365 ft 20 kts 69°
2026-04-16 15:34 50.04602 8.58268 369 ft 20 kts 71°
2026-04-16 15:34 50.04642 8.58431 369 ft 13 kts 69°
2026-04-16 15:35 50.04636 8.58555 370 ft 11 kts 130°
2026-04-16 15:35 50.04574 8.58600 370 ft 9 kts 161°
2026-04-16 15:35 50.04527 8.58625 371 ft 6 kts 163°
2026-04-16 15:35 50.04494 8.58612 371 ft 4 kts 224°
2026-04-16 15:36 50.04480 8.58561 370 ft 12 kts 250°
2026-04-16 15:36 50.04364 8.58073 368 ft 87 kts 250°
2026-04-16 15:36 50.04076 8.56866 362 ft 148 kts 250°
2026-04-16 15:36 50.03660 8.55165 637 ft 174 kts 250°
2026-04-16 15:37 50.03233 8.53412 1468 ft 172 kts 249°
2026-04-16 15:37 50.02799 8.51600 2086 ft 188 kts 249°
2026-04-16 15:37 50.02038 8.49879 2618 ft 202 kts 213°
2026-04-16 15:37 50.00715 8.49087 3430 ft 205 kts 197°
2026-04-16 15:38 49.99330 8.48472 4264 ft 208 kts 197°
2026-04-16 15:38 49.97926 8.47859 5094 ft 211 kts 198°
2026-04-16 15:38 49.96519 8.47244 5893 ft 214 kts 198°
2026-04-16 15:38 49.95052 8.46592 6518 ft 229 kts 199°
2026-04-16 15:39 49.93450 8.45857 7041 ft 247 kts 199°
2026-04-16 15:39 49.91880 8.44743 7833 ft 250 kts 217°
2026-04-16 15:39 49.90653 8.42853 8739 ft 250 kts 237°
2026-04-16 15:39 49.89743 8.40536 9679 ft 252 kts 240°
2026-04-16 15:40 49.88957 8.38090 10547 ft 255 kts 252°
2026-04-16 15:40 49.88620 8.35354 11159 ft 269 kts 268°
2026-04-16 15:40 49.88673 8.33377 11369 ft 284 kts 275°
2026-04-16 15:40 49.88851 8.30194 11661 ft 308 kts 275°
2026-04-16 15:41 49.89311 8.26864 12192 ft 322 kts 290°
2026-04-16 15:41 49.90391 8.23797 12989 ft 327 kts 305°
2026-04-16 15:41 49.91751 8.20943 13865 ft 329 kts 305°
2026-04-16 15:41 49.93114 8.18076 14625 ft 332 kts 305°
2026-04-16 15:42 49.94621 8.15330 15344 ft 336 kts 314°
2026-04-16 15:42 49.96371 8.12960 16052 ft 340 kts 317°
2026-04-16 15:42 49.98172 8.10564 16787 ft 342 kts 317°
2026-04-16 15:42 49.99984 8.08148 17512 ft 345 kts 317°
2026-04-16 15:43 50.01811 8.05709 18227 ft 347 kts 317°
2026-04-16 15:43 50.03653 8.03245 18866 ft 350 kts 317°
2026-04-16 15:43 50.05504 8.00762 19451 ft 353 kts 317°
2026-04-16 15:43 50.07376 7.98249 20080 ft 355 kts 317°
2026-04-16 15:44 50.09262 7.95713 20715 ft 358 kts 317°
2026-04-16 15:44 50.11149 7.93176 21338 ft 360 kts 317°
2026-04-16 15:44 50.13058 7.90612 21953 ft 363 kts 316°
2026-04-16 15:44 50.14971 7.88035 22574 ft 366 kts 316°
2026-04-16 15:45 50.16906 7.85424 23216 ft 368 kts 316°
2026-04-16 15:45 50.18846 7.82803 23804 ft 371 kts 316°
2026-04-16 15:45 50.20803 7.80154 24276 ft 374 kts 316°
2026-04-16 15:45 50.22750 7.77515 24763 ft 376 kts 316°
2026-04-16 15:46 50.24766 7.74886 25230 ft 379 kts 321°
2026-04-16 15:46 50.27038 7.72743 25680 ft 385 kts 330°
2026-04-16 15:46 50.29505 7.71044 26143 ft 388 kts 332°
2026-04-16 15:46 50.31986 7.69355 26590 ft 389 kts 332°
2026-04-16 15:47 50.34476 7.67653 27046 ft 391 kts 332°
2026-04-16 15:47 50.36979 7.65939 27473 ft 393 kts 332°
2026-04-16 15:47 50.39491 7.64215 27916 ft 395 kts 332°
2026-04-16 15:47 50.42010 7.62484 28352 ft 396 kts 332°
2026-04-16 15:48 50.44548 7.60739 28757 ft 398 kts 332°
2026-04-16 15:48 50.47055 7.59011 29150 ft 400 kts 332°
2026-04-16 15:48 50.49614 7.57242 29553 ft 402 kts 332°
2026-04-16 15:48 50.52179 7.55466 29922 ft 404 kts 332°
2026-04-16 15:49 50.54758 7.53679 30295 ft 405 kts 331°
2026-04-16 15:49 50.57210 7.51538 30606 ft 402 kts 323°
2026-04-16 15:49 50.59556 7.49123 30944 ft 403 kts 323°
2026-04-16 15:49 50.61905 7.46712 31287 ft 403 kts 323°
2026-04-16 15:50 50.64252 7.44310 31678 ft 401 kts 323°
2026-04-16 15:50 50.66596 7.41908 32034 ft 400 kts 323°
2026-04-16 15:50 50.68915 7.39535 32490 ft 396 kts 323°
2026-04-16 15:50 50.71218 7.37175 32958 ft 392 kts 322°
2026-04-16 15:51 50.73331 7.34534 33412 ft 385 kts 313°
2026-04-16 15:51 50.75083 7.31376 33867 ft 379 kts 305°
2026-04-16 15:51 50.76444 7.27837 34299 ft 376 kts 298°
2026-04-16 15:51 50.77640 7.24166 34640 ft 375 kts 298°
2026-04-16 15:52 50.78816 7.20556 34912 ft 375 kts 298°
2026-04-16 15:52 50.80011 7.16887 35149 ft 376 kts 297°
2026-04-16 15:52 50.81206 7.13205 35377 ft 377 kts 297°
2026-04-16 15:52 50.82403 7.09514 35599 ft 378 kts 297°
2026-04-16 15:53 50.83606 7.05804 35824 ft 379 kts 297°
2026-04-16 15:53 50.84806 7.02094 36066 ft 379 kts 297°
2026-04-16 15:53 50.86002 6.98376 36308 ft 379 kts 297°
2026-04-16 15:53 50.87200 6.94651 36525 ft 380 kts 297°
2026-04-16 15:54 50.88403 6.90918 36733 ft 381 kts 297°
2026-04-16 15:54 50.89606 6.87187 36949 ft 381 kts 297°
2026-04-16 15:54 50.90818 6.83427 37147 ft 382 kts 297°
2026-04-16 15:54 50.92025 6.79669 37345 ft 383 kts 297°
2026-04-16 15:55 50.93232 6.75896 37536 ft 384 kts 296°
2026-04-16 15:55 50.94437 6.72119 37736 ft 385 kts 296°
2026-04-16 15:55 50.95642 6.68329 37918 ft 385 kts 296°
2026-04-16 15:55 50.96851 6.64526 38116 ft 386 kts 296°
2026-04-16 15:56 50.98062 6.60723 38198 ft 387 kts 296°
2026-04-16 15:56 51.00495 6.53083 38212 ft 388 kts 296°
2026-04-16 15:57 51.02919 6.45413 38215 ft 388 kts 296°
2026-04-16 15:57 51.05323 6.37780 38216 ft 388 kts 296°
2026-04-16 15:58 51.07738 6.30102 38216 ft 388 kts 296°
2026-04-16 15:58 51.10150 6.22408 38222 ft 389 kts 296°
2026-04-16 15:59 51.13733 6.10808 38229 ft 389 kts 292°
2026-04-16 15:59 51.15231 6.02540 38232 ft 389 kts 285°
2026-04-16 16:00 51.16582 5.94182 38231 ft 389 kts 285°
2026-04-16 16:00 51.17932 5.85807 38234 ft 390 kts 285°
2026-04-16 16:01 51.19438 5.77523 38253 ft 389 kts 289°
2026-04-16 16:01 51.21283 5.69398 38237 ft 389 kts 290°
2026-04-16 16:02 51.23149 5.61343 38234 ft 389 kts 290°
2026-04-16 16:02 51.24955 5.53201 38234 ft 389 kts 289°
2026-04-16 16:03 51.26715 5.45035 38232 ft 389 kts 289°
2026-04-16 16:03 51.28469 5.36850 38232 ft 389 kts 289°
2026-04-16 16:04 51.30224 5.28676 38231 ft 389 kts 289°
2026-04-16 16:04 51.31980 5.20495 38227 ft 389 kts 288°
2026-04-16 16:05 51.33728 5.12301 38232 ft 389 kts 288°
2026-04-16 16:05 51.35473 5.04097 38230 ft 389 kts 288°
2026-04-16 16:06 51.37207 4.95892 38233 ft 389 kts 288°
2026-04-16 16:06 51.38924 4.87732 38235 ft 389 kts 288°
2026-04-16 16:07 51.40645 4.79510 38234 ft 389 kts 288°
2026-04-16 16:07 51.42369 4.71295 38237 ft 389 kts 288°
2026-04-16 16:08 51.44079 4.63065 38237 ft 389 kts 288°
2026-04-16 16:08 51.45787 4.54824 38237 ft 389 kts 288°
2026-04-16 16:09 51.47493 4.46586 38239 ft 389 kts 288°
2026-04-16 16:09 51.49188 4.38345 38238 ft 389 kts 288°
2026-04-16 16:10 51.50873 4.30105 38242 ft 388 kts 288°
2026-04-16 16:10 51.52545 4.21907 38236 ft 388 kts 287°
2026-04-16 16:11 51.54217 4.13648 38239 ft 389 kts 287°
2026-04-16 16:11 51.55884 4.05388 38233 ft 389 kts 287°
2026-04-16 16:12 51.57549 3.97117 38236 ft 389 kts 287°
2026-04-16 16:12 51.59211 3.88838 38237 ft 389 kts 287°